Location: Newark
(41.1192°N, 81.5292°W)
Time: 20:12:52
(UTC+00:00)

N. Korean satellite - Pass Details

Date: 23 November 2019
Orbit: 456 x 506 km, 97.2° (Epoch: 05 December)

Event Time Altitude Azimuth Distance (km) Brightness Sun altitude
Rises 22:51:40 0° 181° (S) 2,563 10.5 -9.5°
Reaches altitude 10° 22:53:47 10° 188° (S) 1,693 9.7 -9.9°
Maximum altitude 22:57:17 44° 262° (W) 706 8.0 -10.5°
Drops below altitude 10° 23:00:51 10° 335° (NNW) 1,724 9.4 -11.2°
Sets 23:03:01 0° 342° (NNW) 2,616 10.3 -11.5°
